This demonstration page uses our WeatherBlox Daily Observations layout. Learn more.

Left ArrowRight Arrow

Hourly Observations for July 22, 2021

Temp ( °F °C ) Dew Point ( °F °C ) Humidity (%) Winds ( mph kmh ) Pressure ( in mb ) Visibility ( mi km ) Precip ( " mm )
12:53 am 00:53 Mostly Clear 78 25.6 55 12.8 45 45 ESE 14 22 29.98 1015 10 16 0.00 0.00
1:53 am 01:53 Clear 77 25 56 13.3 48 48 ESE 14 22 29.97 1015 10 16 0.00 0.00
2:53 am 02:53 Clear 75 23.9 58 14.4 55 55 SE 12 19 29.97 1015 10 16 0.00 0.00
3:53 am 03:53 Clear 73 22.8 60 15.6 64 64 SE 9 15 29.96 1015 10 16 0.00 0.00
4:53 am 04:53 Clear 72 22.2 61 16.1 68 68 SE 9 15 29.97 1015 10 16 0.00 0.00
5:53 am 05:53 Clear 71 21.7 63 17.2 76 76 SE 10 17 29.98 1015 10 16 0.00 0.00
6:53 am 06:53 Clear 71 21.7 63 17.2 76 76 SE 10 17 29.98 1015 10 16 0.00 0.00
7:53 am 07:53 Sunny 71 21.7 63 17.2 76 76 SE 13 20 30.00 1016 10 16 0.00 0.00
8:53 am 08:53 Sunny 74 23.3 63 17.2 69 69 SE 13 20 30.01 1016 10 16 0.00 0.00
9:53 am 09:53 Sunny 77 25 64 17.8 64 64 SE 15 24 30.03 1017 10 16 0.00 0.00
10:53 am 10:53 Sunny 82 27.8 63 17.2 53 53 SE 15 24 30.02 1017 10 16 0.00 0.00
11:53 am 11:53 Sunny 86 30 61 16.1 43 43 SSE 14 22 30.01 1016 10 16 0.00 0.00
12:53 pm 12:53 Sunny 88 31.1 59 15 38 38 SE 16 26 29.99 1016 10 16 0.00 0.00
1:53 pm 13:53 Partly Cloudy 89 31.7 56 13.3 33 33 ESE 15 24 29.97 1015 10 16 0.00 0.00
2:53 pm 14:53 Partly Cloudy 90 32.2 56 13.3 32 32 SSE 15 24 29.96 1014 10 16 0.00 0.00
3:53 pm 15:53 Sunny 92 33.3 54 12.2 28 28 SE 13 20 29.93 1014 10 16 0.00 0.00
4:53 pm 16:53 Sunny 92 33.3 54 12.2 28 28 ESE 10 17 29.92 1013 10 16 0.00 0.00
5:53 pm 17:53 Sunny 92 33.3 53 11.7 27 27 SE 3 6 29.89 1012 10 16 0.00 0.00
6:53 pm 18:53 Mostly Sunny 93 33.9 52 11.1 25 25 ESE 8 13 29.88 1012 10 16 0.00 0.00
7:53 pm 19:53 Sunny 91 32.8 51 10.6 26 26 ESE 9 15 29.87 1012 10 16 0.00 0.00
8:53 pm 20:53 Sunny 88 31.1 50 10 27 27 E 8 13 29.89 1012 10 16 0.00 0.00
9:53 pm 21:53 Mostly Cloudy 86 30 52 11.1 31 31 ESE 8 13 29.90 1013 10 16 0.00 0.00
10:53 pm 22:53 Partly Cloudy 85 29.4 54 12.2 35 35 SE 13 20 29.91 1013 10 16 0.00 0.00
11:53 pm 23:53 Clear 83 28.3 61 16.1 48 48 SSE 18 30 29.92 1013 10 16 0.00 0.00

Powered by AerisWeather